TimeCDT,TemperatureF,Dew PointF,Humidity,Sea Level PressureIn,VisibilityMPH,Wind Direction,Wind SpeedMPH,Gust SpeedMPH,PrecipitationIn,Events,Conditions,WindDirDegrees,DateUTC
12:15 AM,19.4,17.6,93,29.96,10.0,SE,11.5,-,N/A,,Clear,140,2013-03-14 05:15:00
12:35 AM,19.4,17.6,93,29.96,10.0,SE,10.4,-,N/A,,Clear,140,2013-03-14 05:35:00
12:55 AM,17.6,15.8,93,29.96,10.0,SE,10.4,-,N/A,,Clear,130,2013-03-14 05:55:00
1:15 AM,15.8,15.8,100,29.96,10.0,SE,9.2,-,N/A,,Clear,140,2013-03-14 06:15:00
1:55 AM,14.0,12.2,93,29.97,10.0,SE,6.9,-,N/A,,Clear,130,2013-03-14 06:55:00
2:15 AM,14.0,12.2,93,29.97,10.0,SE,6.9,-,N/A,,Clear,140,2013-03-14 07:15:00
2:35 AM,14.0,12.2,93,29.97,10.0,ESE,5.8,-,N/A,,Clear,110,2013-03-14 07:35:00
2:55 AM,15.8,15.8,100,29.98,10.0,ESE,5.8,-,N/A,,Clear,120,2013-03-14 07:55:00
3:15 AM,15.8,14.0,93,29.98,10.0,SE,3.5,-,N/A,,Clear,130,2013-03-14 08:15:00
3:35 AM,14.0,12.2,93,29.98,9.0,East,3.5,-,N/A,,Clear,80,2013-03-14 08:35:00
3:55 AM,10.4,10.4,100,29.99,8.0,Calm,Calm,-,N/A,,Clear,0,2013-03-14 08:55:00
4:15 AM,8.6,8.6,100,29.99,7.0,Calm,Calm,-,N/A,,Clear,0,2013-03-14 09:15:00
4:35 AM,8.6,6.8,92,29.99,5.0,NNE,3.5,-,N/A,,Clear,20,2013-03-14 09:35:00
4:55 AM,6.8,5.0,92,30.00,7.0,Calm,Calm,-,N/A,,Clear,0,2013-03-14 09:55:00
5:15 AM,6.8,5.0,92,30.00,5.0,Calm,Calm,-,N/A,,Clear,0,2013-03-14 10:15:00
5:35 AM,6.8,5.0,92,30.00,2.0,North,3.5,-,N/A,,Clear,360,2013-03-14 10:35:00
5:55 AM,5.0,3.2,92,30.00,0.5,Calm,Calm,-,N/A,Fog,Light Freezing Fog,0,2013-03-14 10:55:00
6:15 AM,5.0,3.2,92,30.00,3.0,Calm,Calm,-,N/A,,Clear,0,2013-03-14 11:15:00
6:35 AM,5.0,1.4,85,30.01,0.2,Calm,Calm,-,N/A,Fog,Light Freezing Fog,0,2013-03-14 11:35:00
6:55 AM,5.0,3.2,92,30.01,0.2,NW,4.6,-,N/A,Fog,Light Freezing Fog,310,2013-03-14 11:55:00
7:15 AM,5.0,1.4,85,30.02,0.2,West,4.6,-,N/A,Fog,Light Freezing Fog,270,2013-03-14 12:15:00
7:35 AM,5.0,1.4,85,30.02,0.2,WSW,3.5,-,N/A,Fog,Light Freezing Fog,250,2013-03-14 12:35:00
7:55 AM,5.0,1.4,85,30.04,0.2,West,3.5,-,N/A,Fog,Light Freezing Fog,280,2013-03-14 12:55:00
8:15 AM,5.0,1.4,85,30.05,0.2,NNW,3.5,-,N/A,Fog,Light Freezing Fog,330,2013-03-14 13:15:00
8:35 AM,5.0,1.4,85,30.04,0.2,North,3.5,-,N/A,Fog,Light Freezing Fog,10,2013-03-14 13:35:00
8:55 AM,5.0,1.4,85,30.02,0.8,Calm,Calm,-,N/A,,Mist,0,2013-03-14 13:55:00
9:15 AM,8.6,6.8,92,30.02,0.8,Calm,Calm,-,N/A,,Mist,0,2013-03-14 14:15:00
9:35 AM,8.6,6.8,92,30.04,1.2,WSW,6.9,-,N/A,,Clear,240,2013-03-14 14:35:00
9:55 AM,8.6,6.8,92,30.03,3.0,WSW,3.5,-,N/A,,Clear,250,2013-03-14 14:55:00
10:15 AM,10.4,10.4,100,30.04,5.0,West,3.5,-,N/A,,Clear,260,2013-03-14 15:15:00
10:35 AM,15.8,15.8,100,30.04,9.0,West,5.8,-,N/A,,Clear,280,2013-03-14 15:35:00
10:55 AM,17.6,17.6,100,30.04,9.0,WNW,3.5,-,N/A,,Clear,290,2013-03-14 15:55:00
11:15 AM,19.4,19.4,100,30.04,10.0,West,5.8,-,N/A,,Clear,260,2013-03-14 16:15:00
11:35 AM,19.4,19.4,100,30.05,10.0,West,6.9,-,N/A,,Clear,270,2013-03-14 16:35:00
11:55 AM,21.2,21.2,100,30.04,9.0,NW,6.9,-,N/A,,Clear,310,2013-03-14 16:55:00
12:15 PM,21.2,21.2,100,30.05,10.0,WNW,10.4,-,N/A,,Clear,300,2013-03-14 17:15:00
12:35 PM,23.0,21.2,93,30.05,10.0,NW,6.9,-,N/A,,Clear,310,2013-03-14 17:35:00
12:55 PM,23.0,21.2,93,30.05,10.0,WNW,6.9,-,N/A,,Clear,300,2013-03-14 17:55:00
1:15 PM,24.8,23.0,93,30.06,10.0,NW,4.6,-,N/A,,Clear,320,2013-03-14 18:15:00
1:35 PM,26.6,24.8,93,30.07,10.0,North,5.8,-,N/A,,Clear,360,2013-03-14 18:35:00
1:55 PM,26.6,24.8,93,30.07,9.0,NNE,11.5,-,N/A,,Clear,30,2013-03-14 18:55:00
2:15 PM,26.6,23.0,86,30.05,8.0,NNE,12.7,-,N/A,,Clear,30,2013-03-14 19:15:00
2:55 PM,26.6,23.0,86,30.05,10.0,NE,9.2,-,N/A,,Clear,40,2013-03-14 19:55:00
3:15 PM,26.6,23.0,86,30.05,10.0,NNE,11.5,-,N/A,,Clear,30,2013-03-14 20:15:00
3:35 PM,26.6,23.0,86,30.06,10.0,NNE,9.2,-,N/A,,Clear,30,2013-03-14 20:35:00
3:55 PM,26.6,23.0,86,30.07,9.0,North,12.7,-,N/A,,Clear,10,2013-03-14 20:55:00
4:15 PM,24.8,21.2,86,30.07,10.0,NNE,11.5,-,N/A,,Clear,20,2013-03-14 21:15:00
4:35 PM,24.8,21.2,86,30.07,10.0,NNE,12.7,-,N/A,,Clear,20,2013-03-14 21:35:00
4:55 PM,24.8,21.2,86,30.09,10.0,North,13.8,-,N/A,,Clear,10,2013-03-14 21:55:00
5:15 PM,24.8,19.4,80,30.09,10.0,NNE,15.0,-,N/A,,Clear,20,2013-03-14 22:15:00
5:35 PM,24.8,21.2,86,30.10,10.0,North,12.7,-,N/A,,Clear,10,2013-03-14 22:35:00
5:55 PM,24.8,21.2,86,30.10,10.0,North,11.5,-,N/A,,Clear,10,2013-03-14 22:55:00
6:15 PM,24.8,19.4,80,30.11,10.0,NNE,10.4,-,N/A,,Clear,20,2013-03-14 23:15:00
6:35 PM,24.8,19.4,80,30.10,10.0,NE,10.4,-,N/A,,Clear,40,2013-03-14 23:35:00
6:55 PM,23.0,17.6,80,30.10,10.0,NE,12.7,-,N/A,,Clear,40,2013-03-14 23:55:00
7:15 PM,23.0,17.6,80,30.12,10.0,NNE,12.7,-,N/A,,Clear,30,2013-03-15 00:15:00
7:35 PM,21.2,15.8,80,30.11,10.0,NE,15.0,-,N/A,,Clear,40,2013-03-15 00:35:00
7:55 PM,19.4,15.8,86,30.12,10.0,NE,12.7,-,N/A,,Clear,40,2013-03-15 00:55:00
8:15 PM,19.4,15.8,86,30.12,10.0,NNE,13.8,-,N/A,,Scattered Clouds,30,2013-03-15 01:15:00
8:35 PM,19.4,15.8,86,30.13,10.0,NNE,18.4,-,N/A,,Overcast,30,2013-03-15 01:35:00
8:55 PM,19.4,15.8,86,30.13,10.0,NNE,19.6,25.3,N/A,,Overcast,30,2013-03-15 01:55:00
9:15 PM,19.4,15.8,86,30.14,10.0,NNE,18.4,-,N/A,,Overcast,30,2013-03-15 02:15:00
9:35 PM,19.4,15.8,86,30.14,10.0,NNE,16.1,20.7,N/A,,Overcast,30,2013-03-15 02:35:00
9:55 PM,19.4,15.8,86,30.13,10.0,NE,15.0,-,N/A,,Overcast,40,2013-03-15 02:55:00
10:15 PM,19.4,15.8,86,30.14,10.0,NE,13.8,-,N/A,,Overcast,40,2013-03-15 03:15:00
10:35 PM,19.4,15.8,86,30.14,10.0,NE,12.7,-,N/A,,Overcast,40,2013-03-15 03:35:00
10:55 PM,19.4,15.8,86,30.14,10.0,NNE,13.8,-,N/A,,Overcast,30,2013-03-15 03:55:00
11:15 PM,19.4,15.8,86,30.13,10.0,NE,13.8,-,N/A,,Overcast,40,2013-03-15 04:15:00
11:35 PM,19.4,15.8,86,30.13,10.0,NE,15.0,-,N/A,,Overcast,40,2013-03-15 04:35:00
11:55 PM,19.4,15.8,86,30.13,10.0,NNE,13.8,-,N/A,,Overcast,30,2013-03-15 04:55:00